Date String (YYYY-MM-DD hh:mm:ss) UTC,Instrument flags,Ambient pressure (hPa),Sample flow (lpm),Bypass flow (lpm),Sample temperature (°C),Ambient temperature (°C),ASC tube jacket temperature (°C),LED temperature (°C),Box temperature (°C),Sample RH (%),Span deviation,Mass concentration (μg/m³),Mass concentration (μg/m³),Mass concentration (μg/m³)
DateTimeUTC,F1_M11,P_M11,Q1_M11,Q2_M11,T1_M11,T2_M11,T3_M11,T4_M11,T5_M11,U1_M11,ZSPAN_M11,X0_M11,X2_M11,X1_M11
2022-10-31 06:00:00,,0825.2,4.98,0.00,27.6,25.8,00.0,36.6,29.3,10.0,0000.0,0003.41,0002.53,0002.24
2022-10-31 06:01:00,,0825.2,5.00,0.00,27.6,25.8,00.0,36.5,29.3,10.0,0000.0,0004.17,0002.52,0002.23
2022-10-31 06:02:00,,0825.2,5.00,0.00,27.6,25.7,00.0,36.5,29.2,10.0,0000.0,0004.52,0002.55,0002.23
2022-10-31 06:03:00,,0825.2,5.00,0.00,27.5,25.7,00.0,36.5,29.2,09.9,0000.0,0004.57,0002.57,0002.23
2022-10-31 06:04:00,,0825.2,5.01,0.00,27.5,25.7,00.0,36.5,29.2,09.9,0000.0,0004.49,0002.55,0002.23
2022-10-31 06:05:00,,0825.2,5.01,0.00,27.5,25.7,00.0,36.5,29.2,09.9,0000.0,0004.78,0002.54,0002.22
2022-10-31 06:06:00,,0825.2,4.98,0.00,27.5,25.7,00.0,36.5,29.2,09.9,0000.0,0005.13,0002.56,0002.22
2022-10-31 06:07:00,,0825.2,5.00,0.00,27.5,25.7,00.0,36.5,29.2,09.9,0000.0,0005.25,0002.58,0002.22
2022-10-31 06:08:00,,0825.2,5.00,0.00,27.5,25.7,00.0,36.5,29.1,09.8,0000.0,0005.30,0002.57,0002.21
2022-10-31 06:09:00,,0825.1,5.01,0.00,27.5,25.7,00.0,36.4,29.2,09.9,0000.0,0005.31,0002.54,0002.19
2022-10-31 06:10:00,,0825.1,5.00,0.00,27.5,25.7,00.0,36.4,29.2,09.9,0000.0,0005.54,0002.57,0002.20
2022-10-31 06:11:00,,0825.1,5.00,0.00,27.4,25.7,00.0,36.4,29.1,10.0,0000.0,0005.54,0002.57,0002.20
2022-10-31 06:12:00,,0825.1,4.98,0.00,27.4,25.6,00.0,36.4,29.0,10.0,0000.0,0004.58,0002.56,0002.21
2022-10-31 06:13:00,,0825.1,5.02,0.00,27.4,25.6,00.0,36.4,29.1,10.0,0000.0,0004.42,0002.59,0002.20
2022-10-31 06:14:00,,0825.1,5.00,0.00,27.4,25.6,00.0,36.4,29.1,10.0,0000.0,0004.45,0002.60,0002.19
2022-10-31 06:15:00,,0825.1,5.00,0.00,27.4,25.6,00.0,36.4,29.0,09.9,0000.0,0004.40,0002.58,0002.17
2022-10-31 06:16:00,,0825.1,5.00,0.00,27.4,25.6,00.0,36.4,29.1,09.8,0000.0,0004.00,0002.55,0002.17
2022-10-31 06:17:00,,0825.0,4.97,0.00,27.4,25.6,00.0,36.3,29.1,09.8,0000.0,0003.59,0002.51,0002.17
2022-10-31 06:18:00,,0825.0,5.00,0.00,27.4,25.6,00.0,36.3,29.1,09.8,0000.0,0003.50,0002.48,0002.16
2022-10-31 06:19:00,,0825.0,5.00,0.00,27.4,25.6,00.0,36.3,29.1,09.8,0000.0,0003.42,0002.48,0002.17
2022-10-31 06:20:00,,0825.0,5.01,0.00,27.4,25.6,00.0,36.3,29.1,09.8,0000.0,0003.49,0002.50,0002.18
2022-10-31 06:21:00,,0825.0,4.99,0.00,27.4,25.6,00.0,36.3,29.1,09.7,0000.0,0003.39,0002.51,0002.18
2022-10-31 06:22:00,,0825.0,4.99,0.00,27.3,25.5,00.0,36.3,29.0,09.7,0000.0,0003.37,0002.50,0002.17
2022-10-31 06:23:00,,0825.0,5.00,0.00,27.3,25.5,00.0,36.3,29.0,09.8,0000.0,0003.49,0002.52,0002.16
2022-10-31 06:24:00,,0825.0,5.00,0.00,27.3,25.5,00.0,36.3,29.0,09.9,0000.0,0003.52,0002.51,0002.17
2022-10-31 06:25:00,,0825.0,5.01,0.00,27.3,25.5,00.0,36.3,29.0,09.8,0000.0,0003.48,0002.46,0002.17
2022-10-31 06:26:00,,0824.9,5.01,0.00,27.3,25.5,00.0,36.3,28.9,09.9,0000.0,0003.50,0002.47,0002.18
2022-10-31 06:27:00,,0825.0,4.98,0.00,27.3,25.5,00.0,36.2,29.0,09.9,0000.0,0003.52,0002.48,0002.18
2022-10-31 06:28:00,,0824.9,5.01,0.00,27.3,25.5,00.0,36.2,28.9,09.8,0000.0,0003.50,0002.47,0002.17
2022-10-31 06:29:00,,0825.0,5.00,0.00,27.3,25.4,00.0,36.2,28.9,09.8,0000.0,0003.68,0002.44,0002.17
2022-10-31 06:30:00,,0824.9,5.00,0.00,27.2,25.4,00.0,36.2,28.8,09.7,0000.0,0003.84,0002.44,0002.17
2022-10-31 06:31:00,,0824.9,5.00,0.00,27.2,25.4,00.0,36.2,28.9,09.7,0000.0,0003.80,0002.44,0002.16
2022-10-31 06:32:00,,0825.0,5.01,0.00,27.2,25.4,00.0,36.2,28.8,09.7,0000.0,0004.43,0002.43,0002.16
2022-10-31 06:33:00,,0824.9,5.00,0.00,27.2,25.4,00.0,36.2,28.8,09.7,0000.0,0004.68,0002.37,0002.14
2022-10-31 06:34:00,,0824.9,4.98,0.00,27.2,25.4,00.0,36.2,28.9,09.7,0000.0,0004.50,0002.34,0002.13
2022-10-31 06:35:00,,0824.9,5.00,0.00,27.2,25.4,00.0,36.2,28.9,09.8,0000.0,0004.38,0002.30,0002.12
2022-10-31 06:36:00,,0824.9,5.00,0.00,27.2,25.4,00.0,36.2,28.9,09.8,0000.0,0004.31,0002.28,0002.11
2022-10-31 06:37:00,,0824.9,5.00,0.00,27.2,25.4,00.0,36.1,28.9,09.8,0000.0,0004.35,0002.29,0002.11
2022-10-31 06:38:00,,0824.9,5.00,0.00,27.2,25.4,00.0,36.1,28.9,09.8,0000.0,0004.37,0002.29,0002.10
2022-10-31 06:39:00,,0824.9,4.99,0.00,27.1,25.4,00.0,36.1,28.9,09.7,0000.0,0004.36,0002.29,0002.09
2022-10-31 06:40:00,,0824.9,5.01,0.00,27.1,25.4,00.0,36.1,28.8,09.6,0000.0,0004.16,0002.30,0002.09
2022-10-31 06:41:00,,0824.9,5.01,0.00,27.1,25.4,00.0,36.1,28.9,09.6,0000.0,0003.97,0002.28,0002.07
2022-10-31 06:42:00,,0824.9,5.00,0.00,27.1,25.4,00.0,36.1,28.9,09.6,0000.0,0003.87,0002.24,0002.05
2022-10-31 06:43:00,,0824.9,5.00,0.00,27.1,25.3,00.0,36.1,28.9,09.7,0000.0,0003.10,0002.26,0002.04
2022-10-31 06:44:00,,0824.9,5.00,0.00,27.1,25.3,00.0,36.1,28.9,09.7,0000.0,0002.82,0002.29,0002.03
2022-10-31 06:45:00,,0824.9,4.98,0.00,27.1,25.3,00.0,36.1,28.8,09.5,0000.0,0002.83,0002.28,0002.02
2022-10-31 06:46:00,,0824.9,5.00,0.00,27.1,25.3,00.0,36.0,28.8,09.6,0000.0,0002.82,0002.29,0002.03
2022-10-31 06:47:00,,0824.8,5.00,0.00,27.1,25.3,00.0,36.0,28.8,09.6,0000.0,0002.83,0002.28,0002.03
2022-10-31 06:48:00,,0824.8,5.00,0.00,27.1,25.3,00.0,36.0,28.8,09.7,0000.0,0002.81,0002.27,0002.02
2022-10-31 06:49:00,,0824.8,5.00,0.00,27.1,25.3,00.0,36.0,28.8,09.6,0000.0,0002.89,0002.29,0002.02
2022-10-31 06:50:00,,0824.8,4.98,0.00,27.1,25.3,00.0,36.0,28.8,09.7,0000.0,0003.20,0002.40,0002.03
2022-10-31 06:51:00,,0824.8,5.00,0.00,27.1,25.3,00.0,36.0,28.8,09.7,0000.0,0003.26,0002.42,0002.04
2022-10-31 06:52:00,,0824.8,5.01,0.00,27.1,25.3,00.0,36.0,28.8,09.7,0000.0,0003.26,0002.42,0002.02
2022-10-31 06:53:00,,0824.8,5.00,0.00,27.0,25.3,00.0,36.0,28.8,09.8,0000.0,0003.34,0002.44,0002.03
2022-10-31 06:54:00,,0824.8,5.01,0.00,27.1,25.3,00.0,36.0,28.8,09.8,0000.0,0003.44,0002.46,0002.03
2022-10-31 06:55:00,,0824.8,5.00,0.00,27.0,25.3,00.0,36.0,28.9,09.8,0000.0,0003.44,0002.46,0002.02
2022-10-31 06:56:00,,0824.8,4.98,0.00,27.1,25.4,00.0,36.0,28.8,09.7,0000.0,0003.45,0002.48,0002.03
2022-10-31 06:57:00,,0824.9,5.01,0.00,27.0,25.3,00.0,36.0,28.7,09.7,0000.0,0003.46,0002.49,0002.04
2022-10-31 06:58:00,,0824.8,5.01,0.00,27.0,25.3,00.0,36.0,28.7,09.7,0000.0,0003.47,0002.49,0002.03
2022-10-31 06:59:00,,0824.8,4.99,0.00,27.0,25.3,00.0,36.0,28.7,09.8,0000.0,0003.44,0002.48,0002.04
